| time (UTC) | temp F | wind direction | speed MPH | gust MPH | rain 1hr in | rain 24hr in | rain mn in | humidity % | barometer mb |
| 20260901133019 | 67 | 24 | 6.0 | 10.0 | 0.00 | 1.49 | 1.49 | 98 | 1014.4 |
| 20260901131529 | 67 | 74 | 2.0 | 4.0 | 0.01 | 1.49 | 1.49 | 99 | 1014.2 |
| 20260901130016 | 66 | 120 | 6.0 | 11.0 | 0.02 | 1.49 | 1.49 | 99 | 1013.3 |
| 20260901124513 | 65 | 153 | 8.0 | 22.0 | 0.05 | 1.49 | 1.49 | 99 | 1012.6 |
| 20260901123011 | 64 | 193 | 10.0 | 22.0 | 0.20 | 1.49 | 1.49 | 99 | 1011.9 |
| 20260901121507 | 64 | 152 | 9.0 | 17.0 | 0.20 | 1.48 | 1.48 | 100 | 1012.8 |
| 20260901120004 | 64 | 146 | 1.0 | 6.0 | 0.19 | 1.47 | 1.47 | 100 | 1015.3 |
| 20260901114504 | 64 | 94 | 2.0 | 6.0 | 0.16 | 1.44 | 1.44 | 100 | 1014.8 |
| 20260901113005 | 64 | 79 | 2.0 | 7.0 | 0.02 | 1.29 | 1.29 | 100 | 1014.9 |
| 20260901111503 | 64 | 91 | 3.0 | 9.0 | 0.01 | 1.28 | 1.28 | 100 | 1014.7 |
| 20260901110002 | 64 | 78 | 3.0 | 9.0 | 0.01 | 1.28 | 1.28 | 99 | 1014.5 |
| 20260901104501 | 64 | 72 | 4.0 | 9.0 | 0.06 | 1.28 | 1.28 | 100 | 1014.6 |
| 20260901103059 | 64 | 72 | 2.0 | 5.0 | 0.10 | 1.27 | 1.27 | 99 | 1014.7 |
| 20260901101607 | 64 | 70 | 2.0 | 7.0 | 0.13 | 1.27 | 1.27 | 99 | 1014.6 |
| 20260901100108 | 64 | 112 | 2.0 | 7.0 | 0.17 | 1.27 | 1.27 | 99 | 1014.6 |
| 20260901094602 | 64 | 89 | 1.0 | 4.0 | 0.17 | 1.22 | 1.22 | 99 | 1015.0 |
| 20260901093056 | 64 | 51 | 0.0 | 4.0 | 0.28 | 1.17 | 1.17 | 99 | 1014.9 |
| 20260901091555 | 64 | 59 | 0.0 | 2.0 | 0.34 | 1.13 | 1.13 | 99 | 1014.8 |
| 20260901084607 | 64 | 100 | 1.0 | 4.0 | 0.50 | 1.05 | 1.05 | 99 | 1014.9 |
| 20260901083054 | 64 | 231 | 1.0 | 2.0 | 0.38 | 0.88 | 0.88 | 99 | 1015.5 |
| 20260901081553 | 64 | 144 | 1.0 | 6.0 | 0.47 | 0.80 | 0.80 | 99 | 1014.6 |
| 20260901080054 | 64 | 95 | 0.0 | 6.0 | 0.48 | 0.69 | 0.69 | 98 | 1015.0 |
| 20260901074549 | 64 | 23 | 1.0 | 4.0 | 0.45 | 0.56 | 0.55 | 98 | 1015.2 |
| 20260901073049 | 63 | 129 | 1.0 | 7.0 | 0.43 | 0.51 | 0.50 | 98 | 1014.9 |
| 20260901071547 | 64 | 106 | 0.0 | 0.0 | 0.28 | 0.34 | 0.33 | 97 | 1015.6 |
| 20260901070047 | 64 | 106 | 0.0 | 0.0 | 0.19 | 0.21 | 0.20 | 97 | 1015.5 |
| 20260901064545 | 64 | 115 | 0.0 | 6.0 | 0.10 | 0.11 | 0.10 | 97 | 1015.3 |
| 20260901063043 | 64 | 84 | 3.0 | 7.0 | 0.07 | 0.08 | 0.07 | 97 | 1014.9 |
| 20260901061551 | 64 | 102 | 1.0 | 4.0 | 0.05 | 0.06 | 0.05 | 97 | 1015.5 |
| 20260901060046 | 64 | 106 | 0.0 | 3.0 | 0.01 | 0.02 | 0.01 | 96 | 1015.8 |
| 20260901054539 | 64 | 51 | 2.0 | 5.0 | 0.00 | 0.01 | 0.00 | 97 | 1016.1 |
| 20260901053049 | 64 | 92 | 0.0 | 1.0 | 0.00 | 0.01 | 0.00 | 97 | 1015.8 |
| 20260901051540 | 64 | 115 | 2.0 | 3.0 | 0.00 | 0.01 | 0.00 | 98 | 1015.5 |
| 20260901050040 | 64 | 144 | 0.0 | 2.0 | 0.00 | 0.01 | 0.00 | 98 | 1015.7 |
| 20260901044536 | 64 | 129 | 0.0 | 2.0 | 0.00 | 0.01 | 0.00 | 98 | 1015.7 |
| 20260901043034 | 64 | 141 | 0.0 | 0.0 | 0.00 | 0.01 | 0.00 | 98 | 1015.7 |
| 20260901041532 | 64 | 124 | 0.0 | 0.0 | 0.00 | 0.01 | 0.00 | 98 | 1016.1 |
| 20260901040034 | 64 | 124 | 0.0 | 0.0 | 0.00 | 0.01 | 0.00 | 98 | 1016.2 |
| 20260901034534 | 64 | 93 | 0.0 | 0.0 | 0.00 | 0.01 | 0.01 | 98 | 1016.2 |
| 20260901033028 | 64 | 93 | 0.0 | 0.0 | 0.00 | 0.01 | 0.01 | 98 | 1016.4 |
| 20260901031544 | 64 | 101 | 0.0 | 0.0 | 0.00 | 0.01 | 0.01 | 98 | 1016.2 |
| 20260901030029 | 64 | 139 | 0.0 | 0.0 | 0.00 | 0.01 | 0.01 | 98 | 1016.0 |
| 20260901024527 | 65 | 162 | 0.0 | 2.0 | 0.00 | 0.01 | 0.01 | 97 | 1016.4 |
| 20260901023025 | 66 | 167 | 0.0 | 1.0 | 0.00 | 0.01 | 0.01 | 97 | 1016.5 |
| 20260901021523 | 66 | 152 | 0.0 | 0.0 | 0.00 | 0.01 | 0.01 | 98 | 1016.7 |
| 20260901020022 | 66 | 148 | 0.0 | 0.0 | 0.00 | 0.01 | 0.01 | 97 | 1016.5 |
| 20260901014522 | 66 | 163 | 0.0 | 0.0 | 0.00 | 0.01 | 0.01 | 97 | 1016.6 |
| 20260901013022 | 66 | 161 | 0.0 | 0.0 | 0.00 | 0.01 | 0.01 | 97 | 1016.7 |
| 20260901011521 | 66 | 161 | 0.0 | 0.0 | 0.00 | 0.01 | 0.01 | 96 | 1016.8 |
| 20260901010033 | 67 | 113 | 0.0 | 0.0 | 0.00 | 0.01 | 0.01 | 95 | 1016.8 |
| 20260901004520 | 68 | 76 | 0.0 | 0.0 | 0.00 | 0.01 | 0.01 | 94 | 1016.8 |
| 20260901003020 | 68 | 76 | 0.0 | 0.0 | 0.00 | 0.01 | 0.01 | 94 | 1016.6 |
| 20260901001524 | 69 | 76 | 0.0 | 0.0 | 0.00 | 0.01 | 0.01 | 93 | 1016.5 |
| 20260901000018 | 69 | 76 | 0.0 | 0.0 | 0.00 | 0.01 | 0.01 | 93 | 1016.5 |
| 20260831234518 | 69 | 68 | 0.0 | 0.0 | 0.00 | 0.01 | 0.01 | 92 | 1016.5 |
| 20260831233017 | 70 | 89 | 0.0 | 2.0 | 0.00 | 0.01 | 0.01 | 92 | 1016.6 |
| 20260831231515 | 70 | 46 | 1.0 | 5.0 | 0.00 | 0.01 | 0.01 | 92 | 1016.7 |
| 20260831230015 | 71 | 44 | 1.0 | 4.0 | 0.00 | 0.01 | 0.01 | 91 | 1016.8 |
| 20260831224512 | 71 | 13 | 0.0 | 2.0 | 0.00 | 0.01 | 0.01 | 90 | 1016.9 |
| 20260831223018 | 71 | 38 | 0.0 | 2.0 | 0.00 | 0.01 | 0.01 | 90 | 1016.9 |
| 20260831221523 | 71 | 49 | 0.0 | 3.0 | 0.00 | 0.01 | 0.01 | 90 | 1016.9 |
| 20260831220010 | 71 | 50 | 0.0 | 3.0 | 0.00 | 0.01 | 0.01 | 90 | 1017.0 |
| 20260831214508 | 71 | 55 | 1.0 | 4.0 | 0.00 | 0.01 | 0.01 | 89 | 1017.0 |
| 20260831213008 | 71 | 41 | 0.0 | 5.0 | 0.00 | 0.01 | 0.01 | 89 | 1017.0 |
| 20260831211507 | 72 | 46 | 3.0 | 5.0 | 0.00 | 0.01 | 0.01 | 86 | 1017.1 |
| 20260831210007 | 72 | 75 | 1.0 | 3.0 | 0.00 | 0.01 | 0.01 | 86 | 1017.3 |
| 20260831204504 | 72 | 292 | 0.0 | 1.0 | 0.00 | 0.01 | 0.01 | 86 | 1017.3 |
| 20260831203003 | 72 | 68 | 0.0 | 4.0 | 0.00 | 0.01 | 0.01 | 85 | 1017.4 |
| 20260831201503 | 72 | 55 | 0.0 | 3.0 | 0.00 | 0.01 | 0.01 | 85 | 1017.4 |
| 20260831200001 | 72 | 143 | 0.0 | 1.0 | 0.00 | 0.01 | 0.01 | 85 | 1017.5 |
| 20260831194502 | 72 | 201 | 0.0 | 0.0 | 0.00 | 0.01 | 0.01 | 84 | 1017.5 |
| 20260831193100 | 72 | 203 | 0.0 | 0.0 | 0.00 | 0.01 | 0.01 | 85 | 1017.6 |
| 20260831191558 | 72 | 166 | 0.0 | 3.0 | 0.00 | 0.01 | 0.01 | 85 | 1017.7 |
| 20260831190107 | 72 | 158 | 0.0 | 4.0 | 0.00 | 0.01 | 0.01 | 85 | 1017.8 |
| 20260831184610 | 73 | 158 | 1.0 | 5.0 | 0.00 | 0.02 | 0.01 | 84 | 1017.9 |
| 20260831183055 | 73 | 161 | 0.0 | 4.0 | 0.00 | 0.02 | 0.01 | 86 | 1018.1 |
| 20260831181552 | 72 | 152 | 1.0 | 4.0 | 0.00 | 0.02 | 0.01 | 85 | 1018.4 |
| 20260831180049 | 72 | 185 | 1.0 | 4.0 | 0.00 | 0.02 | 0.01 | 86 | 1018.5 |
| 20260831174556 | 71 | 198 | 0.0 | 5.0 | 0.00 | 0.02 | 0.01 | 87 | 1018.5 |
| 20260831173047 | 71 | 243 | 2.0 | 6.0 | 0.00 | 0.02 | 0.01 | 86 | 1018.7 |
| 20260831171549 | 71 | 189 | 3.0 | 6.0 | 0.00 | 0.02 | 0.01 | 85 | 1018.9 |
| 20260831170125 | 71 | 250 | 1.0 | 7.0 | 0.00 | 0.02 | 0.01 | 85 | 1019.0 |
| 20260831164546 | 71 | 240 | 2.0 | 6.0 | 0.00 | 0.02 | 0.01 | 85 | 1019.2 |
| 20260831163045 | 71 | 222 | 5.0 | 9.0 | 0.00 | 0.02 | 0.01 | 84 | 1019.1 |
| 20260831161544 | 71 | 221 | 3.0 | 7.0 | 0.00 | 0.02 | 0.01 | 85 | 1019.3 |
| 20260831160043 | 71 | 194 | 2.0 | 7.0 | 0.00 | 0.02 | 0.01 | 85 | 1019.2 |
| 20260831154549 | 71 | 231 | 3.0 | 7.0 | 0.00 | 0.02 | 0.01 | 85 | 1019.4 |
| 20260831153041 | 72 | 214 | 0.0 | 5.0 | 0.00 | 0.02 | 0.01 | 87 | 1019.3 |
| 20260831151540 | 71 | 213 | 3.0 | 6.0 | 0.00 | 0.02 | 0.01 | 86 | 1019.3 |
| 20260831150039 | 71 | 167 | 1.0 | 6.0 | 0.00 | 0.02 | 0.01 | 86 | 1019.2 |
| 20260831144539 | 71 | 127 | 2.0 | 6.0 | 0.00 | 0.02 | 0.01 | 86 | 1019.3 |
| 20260831143036 | 70 | 169 | 3.0 | 6.0 | 0.00 | 0.02 | 0.01 | 88 | 1019.4 |
| 20260831141533 | 70 | 99 | 3.0 | 6.0 | 0.00 | 0.02 | 0.01 | 90 | 1019.4 |
| 20260831140034 | 69 | 139 | 5.0 | 8.0 | 0.00 | 0.02 | 0.01 | 93 | 1019.3 |
| 20260831134527 | 68 | 158 | 5.0 | 8.0 | 0.00 | 0.03 | 0.01 | 98 | 1019.2 |